Temp
2 3 4 5 4 5 3 4 4 4 5 5 5 5 5 5 4 4 4 4 4 4 4 4 4 4 4 4 3 2 1 3 2 3 2 2 2 2 1 1 2 1 1
1 3 5 5 4 3 3 3 4 4 4 4 4 4 5 4 4 4 4 4 4 4 4 4 3 2 2 2 2 2 2 2 2 1 1 1 1 1 1 1 1 2 2
1 2 3 2 3 2 2 2 3 3 3 4 4 4 4 4 4 4 3 3 3 3 3 3 1 1 1 1 1 1 1 1 0 1 1 1 1 1 1 1 1 1 1
2 2 2 1 2 2 2 2 2 3 3 3 3 4 3 3 3 3 3 2 2 2 2 1 0 1 1 2 1 0 0 0 0 0 1 1 1 1 1 1 1 1 2
2 2 1 1 2 2 1 2 3 2 2 1 2 2 3 2 2 1 1 1 1 1 1 1 1 1 2 0 0 -0 -1 0 0 0 1 0 0 0 1 1 1 1 1
1 1 1 1 1 2 2 1 1 1 1 2 2 1 2 1 1 0 0 0 0 1 0 0 -0 0 -0 -0 -0 -0 -0 0 1 0 0 -0 -0 0 1 1 1 2 1
1 1 1 1 1 1 2 2 2 2 3 1 2 2 2 2 2 2 2 1 0 0 1 0 -0 -1 -0 -0 -0 -0 0 0 -0 -0 -1 -0 -0 -0 0 1 1 1 1
1 1 1 1 1 1 1 1 1 1 1 1 1 1 1 1 1 1 1 1 0 0 -0 -0 -1 -0 -0 -0 -0 -0 -0 -0 -1 -1 -1 -0 -0 -0 0 0 0 0 1
1 0 1 1 1 1 1 1 1 1 0 0 -0 0 0 0 0 -0 -0 -0 -1 -0 -0 -1 -1 -0 -0 -0 -1 -1 -1 -2 -2 -1 -1 -1 -1 -1 -0 -0 -0 -0 -0
0 0 1 1 1 1 1 0 0 -0 -0 0 0 -0 -0 -0 -1 -0 -0 -0 -1 -1 -1 -1 -1 -1 -1 -1 -1 -2 -2 -2 -2 -1 -1 -1 -1 -1 -1 -1 -1 -1 -0
-0 0 0 -0 0 -0 0 -0 0 1 1 0 1 -0 0 -1 -0 0 -1 -1 -1 -2 -2 -2 -2 -3 -3 -3 -3 -2 -2 -2 -2 -2 -2 -2 -2 -2 -2 -2 -2 -1 -1
-0 0 -1 -1 -0 -0 -0 -0 -0 -0 -0 -0 -1 -1 -1 -1 -1 -0 -1 -1 -1 -1 -1 -2 -2 -2 -2 -3 -3 -3 -3 -3 -3 -2 -2 -2 -2 -2 -2 -2 -2 -2 -2
-0 -1 -1 -1 -1 -1 -1 -2 -1 -1 -1 -1 -1 -1 -1 -1 -1 -1 -1 -1 -2 -1 -1 -1 -2 -3 -3 -3 -3 -3 -3 -3 -3 -3 -3 -3 -3 -3 -3 -3 -3 -3 -3
-1 -2 -2 -2 -2 -2 -1 -1 -1 -2 -2 -2 -2 -2 -2 -2 -2 -2 -2 -2 -2 -3 -3 -2 -3 -3 -3 -3 -3 -4 -4 -4 -4 -4 -4 -4 -4 -4 -4 -4 -3 -4 -4
-1 -2 -2 -3 -2 -2 -2 -4 -4 -3 -2 -3 -3 -3 -3 -3 -3 -3 -3 -3 -4 -4 -4 -3 -4 -4 -4 -4 -5 -4 -4 -4 -5 -5 -5 -5 -5 -4 -4 -4 -4 -4 -4
-2 -2 -1 -1 -2 -2 -3 -3 -4 -4 -5 -4 -4 -4 -4 -4 -4 -4 -4 -4 -4 -4 -4 -4 -4 -4 -4 -5 -5 -5 -5 -5 -6 -6 -6 -6 -5 -5 -5 -5 -5 -4 -4
-4 -4 -3 -3 -3 -3 -3 -4 -4 -4 -5 -5 -5 -5 -5 -5 -5 -4 -4 -4 -4 -4 -4 -4 -4 -4 -5 -5 -5 -5 -5 -5 -6 -6 -6 -6 -6 -6 -5 -5 -5 -5 -5
-7 -7 -7 -6 -6 -6 -6 -7 -8 -7 -7 -6 -6 -6 -6 -5 -5 -5 -5 -5 -5 -4 -4 -5 -5 -5 -5 -5 -5 -5 -6 -6 -6 -6 -7 -7 -7 -7 -7 -6 -6 -6 -6
-7 -8 -9 -9 -9 -9 -8 -8 -9 -9 -9 -8 -8 -7 -7 -6 -6 -6 -6 -5 -5 -5 -5 -5 -5 -5 -5 -5 -6 -6 -6 -7 -7 -7 -7 -7 -8 -7 -7 -7 -7 -7 -7
-9 -9 -9 -9 -9 -9 -9 -9 -9 -9 -10 -10 -9 -9 -8 -8 -8 -7 -7 -6 -6 -6 -6 -6 -6 -6 -6 -6 -6 -7 -7 -7 -7 -7 -7 -7 -7 -8 -8 -8 -8 -8 -8
-9 -9 -10 -10 -11 -10 -10 -10 -10 -10 -11 -11 -11 -10 -10 -9 -9 -8 -8 -8 -7 -7 -7 -6 -7 -7 -7 -7 -7 -7 -8 -8 -8 -7 -7 -7 -7 -8 -8 -8 -9 -9 -9
-10 -10 -11 -11 -12 -12 -12 -12 -12 -11 -11 -13 -12 -11 -11 -10 -10 -9 -9 -8 -8 -8 -8 -7 -7 -7 -7 -8 -8 -8 -8 -8 -8 -8 -8 -8 -8 -9 -9 -9 -9 -9 -9
-10 -11 -11 -12 -13 -13 -13 -13 -13 -13 -13 -13 -13 -13 -11 -11 -11 -10 -9 -9 -9 -8 -8 -8 -8 -8 -8 -8 -8 -8 -8 -9 -8 -8 -9 -9 -9 -9 -9 -9 -9 -9 -9
-11 -11 -12 -13 -13 -14 -14 -14 -14 -14 -14 -13 -13 -13 -13 -12 -11 -10 -10 -10 -9 -9 -9 -9 -9 -9 -9 -9 -9 -9 -9 -9 -9 -9 -10 -10 -10 -10 -9 -10 -10 -10 -9
-12 -12 -13 -14 -14 -14 -14 -14 -14 -14 -14 -14 -13 -13 -12 -12 -11 -11 -11 -10 -10 -10 -10 -10 -10 -9 -9 -9 -9 -10 -10 -10 -10 -10 -10 -10 -10 -10 -10 -10 -10 -10 -10
-12 -13 -14 -14 -14 -14 -14 -14 -15 -15 -14 -14 -14 -14 -13 -13 -13 -12 -11 -11 -11 -10 -10 -10 -10 -10 -10 -10 -10 -10 -10 -10 -10 -10 -10 -10 -10 -10 -10 -10 -10 -10 -10
Height
3005 3017 3023 3020 3020 3028 3038 3047 3056 3063 3069 3075 3081 3087 3093 3099 3105 3110 3115 3120 3124 3128 3132 3136 3138 3139 3140 3140 3140 3140 3140 3142 3142 3141 3139 3137 3137 3134 3131 3130 3129 3128 3126
3010 3015 3018 3014 3017 3027 3037 3045 3053 3059 3065 3071 3076 3083 3088 3095 3100 3105 3110 3114 3118 3121 3125 3128 3129 3130 3132 3132 3132 3133 3133 3133 3136 3135 3134 3131 3129 3127 3125 3123 3123 3121 3119
3010 3015 3019 3018 3019 3029 3036 3042 3049 3055 3060 3066 3073 3077 3082 3088 3093 3099 3103 3107 3111 3114 3116 3117 3120 3122 3124 3124 3126 3125 3126 3125 3126 3126 3124 3123 3123 3120 3119 3117 3115 3114 3111
3016 3019 3022 3023 3025 3028 3033 3039 3045 3051 3057 3062 3069 3073 3078 3082 3087 3092 3096 3099 3102 3105 3107 3109 3111 3113 3113 3114 3115 3113 3117 3118 3118 3118 3118 3117 3116 3114 3112 3110 3107 3105 3104
3020 3023 3025 3025 3026 3029 3033 3037 3041 3048 3050 3057 3063 3067 3070 3075 3080 3084 3088 3091 3094 3095 3098 3100 3102 3104 3105 3105 3106 3108 3110 3111 3112 3111 3112 3111 3109 3107 3105 3102 3100 3098 3096
3023 3024 3026 3031 3032 3034 3037 3041 3044 3046 3049 3052 3054 3058 3059 3067 3072 3075 3078 3080 3084 3084 3089 3091 3092 3094 3097 3098 3101 3103 3103 3104 3104 3105 3104 3101 3100 3101 3098 3095 3093 3090 3088
3025 3027 3031 3034 3036 3037 3041 3045 3047 3048 3050 3053 3057 3060 3062 3066 3066 3070 3072 3076 3078 3080 3079 3080 3082 3087 3090 3093 3094 3095 3096 3097 3096 3097 3095 3094 3093 3091 3087 3085 3084 3082 3080
3029 3033 3035 3036 3038 3040 3042 3044 3046 3048 3050 3051 3051 3054 3057 3059 3061 3065 3068 3069 3071 3071 3073 3076 3079 3082 3084 3085 3087 3089 3091 3091 3088 3086 3086 3085 3084 3082 3081 3077 3076 3073 3071
3032 3037 3038 3039 3041 3042 3043 3046 3047 3048 3050 3052 3054 3054 3058 3058 3059 3061 3061 3063 3066 3069 3071 3071 3073 3076 3078 3080 3081 3083 3081 3080 3078 3078 3078 3076 3074 3073 3072 3071 3069 3067 3065
3036 3038 3039 3040 3041 3042 3044 3046 3048 3050 3050 3051 3052 3053 3055 3056 3057 3057 3058 3059 3061 3063 3065 3064 3067 3069 3071 3070 3071 3072 3071 3072 3071 3071 3071 3070 3067 3064 3064 3065 3063 3059 3058
3035 3034 3035 3038 3038 3039 3040 3042 3043 3042 3042 3044 3047 3049 3049 3050 3050 3051 3051 3051 3051 3053 3054 3057 3059 3060 3061 3061 3062 3065 3064 3064 3064 3062 3062 3062 3060 3056 3055 3055 3054 3051 3051
3031 3030 3032 3032 3033 3034 3035 3035 3035 3034 3037 3037 3039 3037 3036 3038 3040 3040 3042 3044 3045 3046 3046 3047 3048 3050 3051 3052 3054 3056 3057 3057 3057 3057 3055 3054 3052 3048 3047 3047 3046 3045 3044
3023 3027 3025 3025 3026 3025 3027 3027 3024 3024 3029 3028 3027 3027 3029 3028 3028 3029 3030 3031 3032 3035 3036 3036 3037 3041 3043 3043 3046 3048 3048 3048 3047 3047 3046 3043 3042 3043 3040 3039 3038 3039 3037
3023 3020 3019 3018 3017 3015 3013 3010 3013 3016 3015 3015 3016 3017 3018 3016 3017 3018 3018 3019 3020 3020 3025 3028 3027 3029 3031 3031 3033 3037 3037 3038 3038 3037 3036 3035 3032 3032 3034 3033 3032 3031 3029
3010 3010 3011 3009 3006 3002 2999 3011 3007 3003 3001 3005 3004 3000 3002 3004 3005 3003 3006 3006 3011 3011 3011 3015 3017 3018 3019 3021 3022 3025 3026 3027 3027 3027 3027 3026 3023 3023 3023 3023 3023 3022 3021
3004 3001 2997 2996 2994 2993 2992 2993 2990 2992 2995 2991 2989 2990 2991 2994 2992 2992 2992 2995 2997 3000 3000 3002 3008 3009 3010 3010 3011 3014 3014 3015 3016 3016 3017 3015 3015 3014 3012 3013 3016 3013 3012
2993 2990 2988 2983 2980 2978 2975 2976 2975 2974 2974 2977 2977 2980 2980 2981 2981 2980 2981 2983 2988 2985 2986 2991 2996 2998 3000 2999 3001 3003 3005 3006 3006 3006 3005 3006 3004 3002 3001 3003 3005 3005 3002
2978 2976 2971 2969 2965 2962 2961 2959 2958 2954 2954 2957 2960 2962 2961 2962 2964 2966 2967 2970 2970 2972 2977 2982 2985 2986 2988 2988 2990 2991 2992 2994 2993 2996 2998 2996 2997 2996 2993 2992 2995 2995 2994
2963 2961 2959 2958 2955 2953 2950 2947 2944 2942 2943 2944 2944 2946 2946 2947 2948 2950 2951 2952 2958 2962 2967 2969 2972 2974 2976 2975 2978 2979 2983 2986 2984 2986 2988 2987 2986 2986 2985 2983 2985 2987 2987
2956 2953 2950 2949 2946 2943 2940 2937 2935 2932 2931 2932 2932 2932 2933 2933 2935 2936 2938 2942 2947 2950 2953 2956 2959 2961 2965 2966 2968 2970 2973 2974 2974 2974 2976 2977 2976 2975 2975 2976 2976 2978 2981
2949 2946 2942 2939 2937 2935 2932 2928 2925 2921 2919 2919 2921 2920 2919 2920 2922 2924 2926 2931 2935 2939 2943 2946 2949 2952 2955 2957 2960 2962 2962 2962 2962 2963 2965 2965 2965 2966 2965 2967 2970 2971 2972
2940 2936 2931 2928 2924 2922 2919 2917 2914 2911 2909 2908 2909 2910 2910 2910 2911 2914 2917 2919 2924 2927 2931 2935 2939 2943 2946 2948 2950 2951 2951 2953 2953 2953 2955 2954 2955 2956 2958 2959 2962 2963 2965
2932 2927 2923 2917 2913 2909 2907 2905 2903 2901 2899 2897 2897 2897 2899 2902 2903 2904 2907 2911 2914 2918 2921 2925 2929 2933 2936 2938 2940 2942 2942 2944 2943 2943 2945 2945 2946 2947 2949 2951 2953 2955 2956
2924 2919 2913 2908 2904 2901 2898 2896 2894 2892 2890 2889 2889 2889 2890 2893 2896 2895 2898 2902 2905 2908 2912 2917 2920 2923 2926 2928 2930 2932 2933 2934 2935 2935 2936 2936 2938 2939 2941 2943 2944 2946 2947
2917 2911 2906 2902 2898 2894 2891 2889 2887 2885 2883 2882 2881 2881 2882 2883 2887 2889 2891 2894 2897 2901 2905 2909 2911 2914 2917 2918 2921 2923 2925 2926 2927 2928 2929 2930 2931 2932 2933 2935 2936 2937 2938
2910 2905 2901 2897 2893 2889 2886 2884 2882 2880 2878 2877 2875 2875 2876 2878 2882 2882 2885 2888 2891 2894 2898 2901 2904 2906 2908 2910 2912 2915 2917 2918 2920 2921 2922 2923 2923 2925 2926 2928 2929 2930 2931
Wind_Speed
23 13 6 19 28 50 46 38 37 34 35 38 39 40 41 41 42 42 41 41 40 38 37 37 37 36 35 35 39 39 35 39 29 31 30 26 26 24 23 23 24 26 26
24 18 3 19 22 47 42 35 36 35 36 38 39 41 41 41 41 42 42 41 39 37 36 37 35 36 36 36 39 38 37 45 42 31 30 26 26 25 24 26 27 28 27
18 15 8 18 27 41 44 37 36 36 39 37 39 40 40 41 40 41 41 40 39 38 39 39 37 35 33 32 38 37 37 40 33 27 26 26 26 25 27 29 30 29 28
16 17 15 13 25 37 26 37 42 38 40 37 38 38 40 38 40 39 39 40 38 36 37 37 37 37 37 48 51 41 42 40 28 27 27 26 26 27 29 30 30 30 30
19 14 10 9 7 18 21 24 30 44 42 49 41 38 38 38 38 39 39 39 34 34 36 36 34 38 38 23 22 21 26 28 28 29 28 27 28 30 31 31 29 30 31
17 13 10 8 11 19 24 18 18 11 16 22 40 39 54 46 37 38 44 43 43 36 42 51 54 48 30 24 25 26 28 30 30 29 28 27 30 31 32 31 31 30 30
11 10 8 8 9 10 17 18 13 18 22 22 25 26 21 28 38 39 38 38 38 38 26 28 26 24 25 25 26 30 30 30 30 28 27 29 31 31 30 30 30 30 28
9 6 6 7 9 8 9 11 11 17 18 23 21 23 24 25 26 28 27 30 27 26 24 21 25 27 27 28 29 29 29 29 26 26 29 31 33 32 31 30 28 26 26
8 7 6 4 0 4 5 4 6 7 10 13 15 17 19 19 20 22 21 20 21 23 26 27 25 26 25 26 27 27 25 25 26 28 30 31 32 33 31 29 27 26 26
3 4 4 3 3 3 4 9 13 15 17 18 20 23 26 25 28 28 28 28 28 28 28 27 27 29 28 27 26 25 25 27 29 30 31 33 33 33 31 28 26 25 26
12 11 12 13 13 13 14 15 17 21 23 24 25 27 30 30 35 31 36 35 35 31 30 29 28 29 29 29 28 28 29 29 29 30 31 32 32 30 27 26 25 24 25
15 16 19 21 21 21 23 24 25 24 26 27 27 26 26 27 31 31 32 37 37 34 36 40 36 37 38 34 31 30 30 29 30 31 32 31 30 28 26 25 25 25 24
18 20 21 23 25 26 29 30 32 33 35 35 35 35 35 36 36 36 37 37 33 35 38 39 37 36 33 31 29 29 31 30 31 30 31 30 28 28 27 26 26 25 25
26 26 27 28 29 30 32 34 36 38 39 40 41 41 43 42 42 42 42 41 41 37 37 38 34 34 34 33 30 31 31 31 30 30 30 28 27 27 28 28 26 25 24
28 31 33 34 36 37 37 38 38 37 40 41 39 39 39 39 36 37 39 39 37 36 36 37 37 36 34 32 31 32 32 32 30 31 28 27 26 28 29 28 27 25 25
30 33 36 39 42 44 46 46 42 40 42 42 41 40 40 40 37 37 37 38 38 40 40 39 39 38 35 32 32 33 34 33 32 30 28 28 28 30 29 28 28 26 26
29 32 36 40 43 44 45 48 51 50 47 43 42 44 45 43 41 40 39 39 41 41 42 41 40 38 36 34 35 35 35 33 30 29 28 28 30 30 29 27 28 26 24
24 26 32 38 42 46 49 50 46 46 48 51 45 42 44 47 44 42 43 43 44 43 43 40 39 38 38 37 38 33 29 29 30 29 28 31 31 29 26 25 24 24 23
32 27 25 25 31 40 47 52 52 46 43 44 41 42 39 40 46 46 45 44 43 44 44 42 43 40 39 36 32 29 26 27 28 32 34 33 31 30 25 24 23 23 22
30 29 28 26 25 27 31 36 44 52 49 44 43 41 38 36 35 34 34 35 35 34 33 30 30 30 33 33 30 28 30 31 31 33 35 34 31 30 26 25 23 23 23
32 33 33 32 29 28 28 29 34 40 45 40 43 37 38 37 34 33 32 32 29 27 29 27 26 25 26 28 28 28 30 31 31 33 34 33 30 27 25 24 24 24 23
35 36 36 35 34 31 29 29 30 33 38 38 32 35 26 28 31 31 32 30 28 27 27 27 29 31 31 28 28 28 29 30 31 33 32 30 28 26 25 25 26 25 25
36 36 36 35 32 30 30 29 29 30 31 32 30 31 38 34 27 27 29 30 28 27 26 26 28 29 30 29 30 31 31 32 31 29 29 27 26 25 25 26 25 25 25
36 36 34 30 27 26 26 27 26 27 28 28 26 26 28 30 29 23 25 27 27 26 27 27 27 28 30 30 31 31 31 29 28 27 24 23 24 24 25 26 25 24 25
34 32 28 26 25 23 22 23 23 22 23 24 24 22 23 25 27 20 21 23 24 26 26 26 27 28 29 29 31 29 27 24 22 21 22 22 22 23 25 25 24 23 23
30 28 25 23 22 21 21 20 20 19 19 19 20 19 18 21 22 19 19 21 23 25 26 27 27 28 28 27 25 23 21 23 21 18 18 19 20 20 21 20 20 20 21
Wind_Direction
125 151 253 260 236 198 198 205 205 207 210 215 215 213 215 217 219 222 224 227 231 236 240 245 250 256 260 263 268 272 276 288 282 282 279 280 281 285 286 291 293 294 295
122 110 158 185 205 180 194 203 209 208 210 214 218 217 218 220 223 226 229 232 235 238 241 246 249 252 259 263 267 270 280 285 280 275 277 280 280 285 291 292 294 293 295
126 139 143 151 165 186 204 205 207 207 212 214 217 220 222 224 227 229 231 233 236 238 241 242 243 255 262 270 268 269 267 279 271 269 280 279 282 289 294 295 295 298 293
137 149 135 141 172 180 186 208 211 216 210 213 218 223 226 227 230 229 231 234 234 235 239 240 250 251 260 266 269 255 263 270 264 276 277 281 288 289 291 294 295 293 294
154 134 118 114 143 187 186 197 193 214 224 218 219 223 224 224 226 227 233 232 226 228 242 243 244 259 262 247 254 255 257 262 273 278 279 283 287 291 292 293 294 293 296
142 140 119 117 96 166 156 158 159 151 213 240 235 237 210 226 229 240 239 238 233 226 236 253 254 256 241 247 249 253 263 270 272 272 277 285 291 294 296 298 298 298 296
116 126 137 139 140 141 174 192 211 189 191 206 201 212 212 230 237 222 223 244 251 255 233 231 229 240 243 249 255 260 264 265 266 274 284 288 290 293 295 298 299 300 299
112 122 138 155 165 170 182 197 201 191 205 210 222 228 225 224 217 227 242 242 237 235 233 232 236 240 247 253 256 258 259 265 276 283 286 289 292 295 297 297 293 293 295
57 56 59 62 6 227 223 234 230 235 212 213 229 226 230 234 236 239 240 236 238 240 239 239 247 254 253 254 255 260 270 277 280 282 284 287 290 291 291 290 286 289 293
234 246 265 262 245 235 241 242 253 247 240 234 239 238 236 234 236 237 240 241 244 243 247 247 247 247 248 253 258 265 271 275 279 282 286 289 289 290 286 286 287 292 296
249 246 250 252 247 242 241 238 237 247 262 268 269 261 263 247 246 245 246 249 244 249 245 247 247 249 252 256 261 264 266 271 276 282 286 291 294 290 283 283 284 289 296
257 257 254 258 255 250 251 250 248 247 250 257 259 258 261 265 264 265 262 262 263 259 260 248 243 250 257 256 256 263 270 274 280 284 288 292 289 283 278 277 282 287 293
275 269 266 262 262 261 258 254 250 253 255 254 253 253 257 258 256 259 260 260 255 258 258 261 261 269 267 262 260 265 267 271 276 282 287 286 282 279 276 278 282 287 290
260 262 266 268 266 265 265 265 262 257 258 258 257 258 258 256 258 258 257 257 257 255 251 250 251 250 251 252 256 259 263 268 274 281 283 284 284 283 281 281 282 283 286
280 276 271 268 267 266 266 262 262 263 263 261 260 259 260 259 255 252 254 253 251 247 244 246 247 248 248 248 249 254 261 267 273 278 281 286 287 285 282 281 279 279 281
287 285 282 278 277 275 271 267 265 265 264 263 263 260 258 259 257 255 253 252 250 247 247 248 248 247 248 247 251 256 262 267 272 274 277 282 284 286 284 284 279 276 277
277 274 271 269 268 266 265 266 264 256 258 262 264 261 256 253 250 249 248 247 245 243 245 245 246 246 246 248 252 259 266 267 265 269 276 279 281 281 280 282 277 272 272
296 281 272 269 268 264 261 262 264 263 259 251 250 256 257 253 248 248 247 246 246 247 248 249 251 251 251 250 255 257 258 263 265 267 271 281 280 278 282 281 277 273 269
318 314 304 291 277 271 267 267 269 267 266 266 260 249 249 249 248 245 243 242 242 244 248 249 251 252 251 244 245 251 258 263 266 269 276 281 277 275 278 280 276 270 266
324 320 317 311 302 290 283 278 272 273 273 273 272 263 252 248 243 239 240 242 241 241 244 250 252 247 242 245 243 247 256 263 268 275 280 278 274 270 271 271 268 266 264
319 316 311 307 302 295 288 280 273 271 270 275 274 277 270 260 252 243 239 239 237 237 237 243 237 243 238 245 252 260 268 272 276 279 279 277 273 265 261 262 261 262 263
319 317 314 311 305 296 289 284 279 274 276 273 267 266 276 278 263 251 243 238 240 240 241 240 239 239 237 245 254 267 275 277 280 279 273 268 260 251 252 255 260 258 258
318 316 314 310 304 298 291 286 283 279 278 278 276 272 263 273 275 261 252 245 240 240 241 242 242 243 246 254 261 268 274 279 278 273 271 263 251 244 245 252 259 257 258
320 318 315 312 308 303 297 291 289 283 282 280 276 269 268 253 270 265 259 253 247 244 245 247 248 250 253 258 263 266 271 274 272 270 264 252 244 242 244 252 260 257 260
322 320 318 313 310 308 307 301 296 290 284 282 281 272 270 256 250 258 260 255 249 246 245 246 248 250 253 257 263 264 262 263 264 262 256 251 247 247 252 255 255 259 261
326 325 323 320 314 313 312 309 305 299 292 288 285 277 269 257 248 237 248 252 250 245 245 245 247 250 254 257 256 251 246 254 252 261 259 254 253 255 257 257 258 260 263